Regional Weather Roundup
Issued by NWS

Home | Current Version | Previous Version | Text Only | Print | Product List | Glossary On
Versions: 1 2 3 4 5 6 7 8 9 10 11 12 13 14 15 16 17 18 19 20 21 22 23 24 25 26 27 28 29 30 31 32 33 34 35 36 37 38 39 40 41 42 43 44 45 46 47 48 49 50
000
ASUS43 KLOT 251321
RWRIL

ILLINOIS REGIONAL WEATHER ROUNDUP
NATIONAL WEATHER SERVICE CHICAGO/ROMEOVILLE IL
800 AM CDT SAT APR 25 2015

NOTE: "FAIR" INDICATES FEW OR NO CLOUDS BELOW 12,000 FEET WITH NO
SIGNIFICANT WEATHER AND/OR OBSTRUCTIONS TO VISIBILITY.

* THESE STATIONS ARE NOT UNDER NWS QUALITY CONTROL. THEY ALSO MAY NOT
  REPORT WEATHER SUCH AS PRECIPITATION OR FOG.

ILZ001-002-007-009-015-016-024-251400-
NORTHWEST ILLINOIS

CITY           SKY/WX    TMP DP  RH WIND       PRES   REMARKS
MOLINE         LGT RAIN  44  41  89 E20G26    29.67F FOG
STERLING*      CLOUDY    43  39  87 E18G24    29.72S
SAVANNA*       CLOUDY    44  38  79 E17G24    29.73F
$$

ILZ003-004-008-010-011-017-018-251400-
NORTH CENTRAL ILLINOIS

CITY           SKY/WX    TMP DP  RH WIND       PRES   REMARKS
ROCKFORD       CLOUDY    45  36  70 E14G25    29.79S
FREEPORT*      CLOUDY    42  37  80 E14       29.78S
ROCHELLE*      CLOUDY    42  39  89 E17G23    29.75F
DE KALB*       LGT RAIN  42  38  86 E15       29.78S
PERU*          RAIN      44  42  95 E17       29.71F
$$

ILZ005-006-012>014-019>023-251400-
NORTHEAST ILLINOIS

CITY           SKY/WX    TMP DP  RH WIND       PRES   REMARKS
CHICAGO-OHARE  LGT RAIN  44  38  79 E12G18    29.80R
CHICAGO-MIDWAY LGT RAIN  46  40  79 E12       29.80S
AURORA         LGT RAIN  44  39  82 E14       29.77F
LANSING*       LGT RAIN  43  38  85 E12       29.81R
JOLIET*        RAIN      45  42  91 E12G17    29.78S
WAUKEGAN       CLOUDY    42  38  85 E10       29.82S
DUPAGE AIRPORT CLOUDY    44  38  79 E16       29.77S
KANKAKEE*      HVY RAIN  43  42  96 NE13      29.75F
WHEELING       CLOUDY    43  37  79 E12       29.83R
MORRIS*        RAIN      44  41  91 E14G24    29.72F
ROMEOVILLE*    LGT RAIN  43  40  88 E15       29.76F
NORTHERLY ISL    N/A     44  39  82 E13         N/A
$$

LMZ740>746-251400-
SOUTHERN LAKE MICHIGAN

STATION/POSITION SKY/WX   TEMP    WIND        PRES    VSBY  WAVE
                          AIR SEA DIR/SP/G                  HT/PER
                          (F)     (DEG/KT/KT) (MB)    (MI)  (FT/S)
HARRISON CRIB              41      90/ 17/ 19   N/A
BURNHAM HARBOR             44      90/ 11/ 17   N/A
CALUMET HARBOR             45     100/ 13/ 16   N/A
BURNS HARBOR               44     100/ 14/ 22 1009.5F
MICHIGAN CITY              44     100/ 16/ 24   N/A
MICHIGAN CITY 6N           45 44  130/ 16/ 21   N/A           3/ 4
$$

ILZ025>027-034>036-040-047-049-050-058-095>099-251400-
WEST-CENTRAL ILLINOIS

CITY           SKY/WX    TMP DP  RH WIND       PRES   REMARKS
QUINCY         LGT RAIN  50  49  96 E9        29.56F FOG
GALESBURG*     RAIN      45  44  97 E23G30    29.60F
MACOMB*        LGT RAIN  47  46  98 E17       29.61F
JACKSONVILLE*  CLOUDY    53  48  83 E10       29.58R
PITTSFIELD*    CLOUDY    53  50  89 E3        29.59R
$$

ILZ028>032-037-038-041>044-048-051>054-059>061-251400-
CENTRAL ILLINOIS

CITY           SKY/WX    TMP DP  RH WIND       PRES   REMARKS
PONTIAC        CLOUDY    46  45  96 NE15      29.70F FOG
BLOOMINGTON    CLOUDY    49  48  96 E14       29.66F FOG
DECATUR        CLOUDY    51  47  86 E15       29.62F
PEORIA         RAIN      49  45  86 NE15      29.65F FOG
LACON*         LGT RAIN  44  42  93 E12G18    29.69R
LINCOLN*       DRIZZLE   52  47  83 E10       29.60F
SPRINGFIELD    CLOUDY    53  46  77 SE13      29.58F
TAYLORVILLE    CLOUDY    50  46  87 E14       29.57F
$$

ILZ033-039-045-046-055>057-062-063-251400-
EAST-CENTRAL ILLINOIS

CITY           SKY/WX    TMP DP  RH WIND       PRES   REMARKS
CHAMPAIGN      LGT RAIN  49  48  97 E18       29.65F FOG
DANVILLE*      LGT RAIN  49  46  87 E13       29.66F
RANTOUL*       LGT RAIN  51  48  89 E12       29.67F
MATTOON        HVY RAIN  49  47  93 SE10      29.64F VSB 1
PARIS*         LGT RAIN  49  47  93 E13       29.67F
$$

ILZ079-100>102-251400-
SOUTHWEST ILLINOIS

CITY           SKY/WX    TMP DP  RH WIND       PRES   REMARKS
ALTON          CLOUDY    54  54 100 SE9       29.56F FOG
BELLEVILLE     CLOUDY    55  55 100 SE9       29.56F FOG
CAHOKIA*       CLOUDY    56  55  97 SE12      29.55F FOG
SPARTA*        CLOUDY    54  54  99 SE9       29.59F FOG
$$

ILZ064>066-069>071-074>076-080>082-084>086-088>090-092>094-251400-
SOUTH-CENTRAL ILLINOIS

CITY           SKY/WX    TMP DP  RH WIND       PRES   REMARKS
CARBONDALE     CLOUDY    56  54  93 SE7       29.60F FOG
CAIRO*         CLOUDY    58  58  99 S7        29.63F FOG
EFFINGHAM*     DRIZZLE   50  48  90 E12       29.64F
MARION         CLOUDY    57  55  94 SE8       29.62F FOG
MT. VERNON     CLOUDY    55  48  76 E5        29.62S
CENTRALIA*     LGT RAIN  53  49  89 E6        29.60F
SALEM*         LGT RAIN  55  52  90 SE6       29.60F
METROPOLIS*    CLOUDY    59  59  98 SE3       29.64S
$$

ILZ067-068-072-073-078-083-087-091-251400-
SOUTHEAST ILLINOIS

CITY           SKY/WX    TMP DP  RH WIND       PRES   REMARKS
LAWRENCEVILLE  LGT RAIN  51  50  96 E12       29.65F FOG
FLORA*         CLOUDY    51  50  95 E7        29.64F FOG
FAIRFIELD*     CLOUDY    54  51  91 SE6       29.62F
HARRISBURG*    CLOUDY    57  54  88 SE6       29.64F
ROBINSON*      DRIZZLE   50  49  94 SE9       29.68F
CARMI*         CLOUDY    55  49  80 SE9       29.64F
$$

ABBREVIATIONS USED IN REMARKS
   TC - TEMPERATURE IN CELSIUS
  WCI - WIND CHILL INDEX
   HX - HEAT INDEX
  VSB - VISIBILITY
$$



USA.gov is the U.S. government's official web portal to all federal, state and local government web resources and services.